CZ-6A R/B, 60214

Orbit data source: Space-Track

CZ-6A R/B, 60214 is space debris in SSO originally from a launch on Thu, 04 Jul 2024 UTC launched from the Taiyaun Space Center, China (TSC). Debris objects in space refer to the collection of defunct objects orbiting the Earth. Examples of debris include non-operational satellites, rocket bodies, and fragments generated from explosions, collisions, or faulty payload assembly.

Loading next visibility...
Identifier
60214, 2024-126D
Orbit
SSO
Last TLE update
10 hours ago
Origin
Manufacturer
SAST
Mission
Spacecraft
Bus & Motor
CZ-6A STAGE 2, YF-115
Mass
~6,000 kg wet, ~6,000 kg dry
Launch date (UTC)
2024-07-04 (1 year ago)
Launch vehicle
Unknown
Launch site
Taiyaun Space Center, China (TSC)
Object type
Payload
Rocket body
Debris
Shape & HBR
Unknown
Radar Cross Section
Large (>1 m²)

Expand to show TLE details & history

TLE from 10 hours ago
0 CZ-6A R/B
1 60214U 24126D   25189.92367494  .00002497  00000-0  14632-3 0  9998
2 60214  97.8062 208.6373 0071853 213.3530 146.3162 15.10642433 55559
Epoch: 2025-07-08T22:10Z
TLE epoch observation values (Epoch: 2025-07-08T22:10:05.514Z)
Latitude
-0.00006°
Longitude
-50.99736°
Altitude
578.752 km
Speed
7.548 km/s
True Right ascension
13h 54m 32s
True Declination
0° 00' 00"
Sunlit
Object was in daylight at epoch
Visualization orbit readout
Latitude
33.87591°
Longitude
-55.83775°
Altitude
588.416 km
Speed
7.542 km/s
Apparent Right ascension
11h 05m 10s
Apparent Declination
-1° 29' 21"
Sunlit
Object is in daylight
Visualization observer readout
Local Sidereal Time
20:01:06
Azimuth
300.608° NW
Elevation
-33.308°
Doppler factor
1
Orbital elements
Apogee altitude
580.881 km
Perigee altitude
481.589 km
Semi-major axis
6,909.372 km
Eccentricity
0.00719
Inclination
97.8062°
RAAN
208.6373°
Arg. of periapsis
213.353°
True anomaly
Unknown
Mean anomaly
146.3162°
Eccentric anomaly
Unknown
Mean motion
3.77907 °/min
Orbital period
95.26 mins
BSTAR
0.00014632
Loading maneuver chart data...
Loading SW <> Apogee altitude chart data...
Loading historical data...
Loading historical data...
Loading historical data...
Loading historical data...
Loading historical data...
Loading historical data...
Loading historical data...
Other satellites on launch #126 in the year 2024 (2024-07-04 UTC)

CZ-6A R/B Visibility forecast

Observer location: undefined°, undefined°

Span
Click to sort rows by Start time (UTC) header in descending order
Start Az.
Max El. time (UTC)
Max El. Az.
Max El.
End time (UTC)
End Az.
5 mins2025-07-09 14:38:32.488Z346.764° N2025-07-09 14:40:32.488Z300.079° NW31.228°2025-07-09 14:43:32.488Z224.372° SW
6 mins2025-07-10 01:19:32.488Z168.761° S2025-07-10 01:22:32.488Z310.356° NW44.765°2025-07-10 01:25:32.488Z346.003° N
|